Regional Weather Roundup
Issued by NWS

Home | Current Version | Previous Version | Text Only | Print | Product List | Glossary On
Versions: 1 2 3 4 5 6 7 8 9 10 11 12 13 14 15 16 17 18 19 20 21 22 23 24 25 26 27 28 29 30 31 32 33 34 35 36 37 38 39 40 41 42 43 44 45 46 47 48 49 50
000
ASUS44 KFWD 172015
RWRTX
NORTH TEXAS HOURLY WEATHER ROUNDUP
NATIONAL WEATHER SERVICE FORT WORTH TX
200 PM CST SUN DEC 17 2017

NOTE: "FAIR" INDICATES FEW OR NO CLOUDS BELOW 12,000 FEET WITH NO
SIGNIFICANT WEATHER AND/OR OBSTRUCTIONS TO VISIBILITY.

TXZ118-119-172100-
DALLAS/FORT WORTH METROPLEX

CITY           SKY/WX    TMP DP  RH WIND       PRES   REMARKS
DFW AIRPORT    CLOUDY    52  46  80 S13       30.04S
DALLAS LOVE    CLOUDY    51  45  79 S9        30.06S
FTW MEACHAM    CLOUDY    52  47  83 S13       30.05F
DAL-EXECUTIVE  CLOUDY    50  47  89 S7        30.05F
FTW-ALLIANCE   CLOUDY    50  46  86 S10       30.04F
FTW-NAS-JRB    CLOUDY    52  45  77 S12       30.06F
FTW-SPINKS     CLOUDY    50  46  87 S8        30.07F FOG
ARLINGTON      CLOUDY    49  46  90 S9        30.06F
GRAND PRAIRIE  CLOUDY    50  45  81 S9        30.08S
ADDISON        CLOUDY    50  45  81 S8        30.06F
MESQUITE       CLOUDY    48  45  87 S10       30.07F
LANCASTER      CLOUDY    49  45  86 S8        30.08F
$$

TXZ091>094-102>105-117-120-121-131>134-172100-
NORTH CENTRAL TEXAS

CITY           SKY/WX    TMP DP  RH WIND       PRES   REMARKS
SHRMAN/DENISON CLOUDY    47  44  89 S7        30.06S
GAINESVILLE    CLOUDY    47  43  86 S8        30.06R
BOWIE          CLOUDY    52  45  77 SE7       30.02S
BRIDGEPORT     CLOUDY    55  45  69 S7        30.05S
DECATUR        CLOUDY    50  44  81 S10       30.03S
DENTON         CLOUDY    49  44  83 S12       30.05S
MCKINNEY       CLOUDY    49  46  90 S9        30.06S
BONHAM         CLOUDY    48  44  84 S10       30.06R
GREENVILLE     CLOUDY    50  48  93 SW6       30.07F
ROCKWALL       CLOUDY    48  47  93 S9        30.07F
TERRELL        CLOUDY    49  45  86 SW9       30.08S
WAXAHACHIE     CLOUDY    49  47  94 S7        30.08F
GRANBURY       MOSUNNY   56  47  72 SE9       30.04F
$$

TXZ083>090-098>101-113>116-127>130-139>142-154-155-172100-
WESTERN NORTH TEXAS

CITY           SKY/WX    TMP DP  RH WIND       PRES   REMARKS
WICHITA FALLS  CLOUDY    56  41  57 VRB6      29.99S
WF-KICKAPOO    CLOUDY    57  42  57 W6        30.02F
VERNON         CLOUDY    49  35  58 CALM      30.02S
ABILENE        CLOUDY    59  40  49 VRB6      30.01F
ABILENE-DYESS  CLOUDY    61  41  48 SW8       30.00F
GRAHAM           N/A     60  42  51 S7        30.00S
BRECKENRIDGE   CLOUDY    65  39  39 W7        30.00F
CISCO          CLOUDY    63  45  51 SW13      30.02F
EASTLAND       CLOUDY    60  45  57 SW7       30.01F
RANGER         CLOUDY    60  44  54 SW9       30.01F
MINERAL WELLS  SUNNY     58  47  66 SE13      30.00F
STEPHENVILLE   SUNNY     63  47  57 S7        30.03F
COMANCHE       SUNNY     64  47  53 SW8       30.02F
COLEMAN        CLOUDY    62  44  51 SW10      30.01F
$$

TXZ143>147-156>162-174-175-172100-
CENTRAL TEXAS

CITY           SKY/WX    TMP DP  RH WIND       PRES   REMARKS
WACO           CLOUDY    50  47  89 CALM      30.06F
WACO-TSTC      CLOUDY    50  48  93 CALM      30.07F
WACO-MCGREGOR  CLOUDY    52  47  83 S3        30.06F
HILLSBORO      CLOUDY    50  48  91 SW8       30.06F
CORSICANA      CLOUDY    51  47  86 W8        30.09S
MEXIA          MOSUNNY   53  47  79 W6        30.06F
HEARNE         CLOUDY    51  51 100 W5        30.08F
CAMERON        CLOUDY    54  48  80 N3        30.06F
TEMPLE         MOSUNNY   54  48  80 CALM      30.05F
KILLEEN        MOSUNNY   57  50  76 S3        30.01F
KILLEEN-SKYLRK MOSUNNY   58  50  75 S3        30.03F
FORT HOOD      SUNNY     53  48  82 S3        29.99F
GATESVILLE     SUNNY     55  48  76 CALM      30.04F
HAMILTON       SUNNY     61  48  60 W5        30.03F
LAMPASAS       SUNNY     62  48  59 S3        30.01F
$$

TXZ095>097-106>112-122>126-135>138-148>153-164>167-172100-
EAST TEXAS

CITY           SKY/WX    TMP DP  RH WIND       PRES   REMARKS
PARIS          CLOUDY    47  46  97 SE7       30.07S
SULPHUR SPRNGS CLOUDY    49  47  93 SW6       30.09S
MOUNT PLEASANT CLOUDY    47  46  95 S3        30.10S
GILMER         CLOUDY    47  46  99 CALM      30.08S FOG
MINEOLA        CLOUDY    48  46  93 CALM      30.08S
TYLER          CLOUDY    50  47  89 W3        30.06F
LONGVIEW       CLOUDY    50  50 100 CALM      30.06F FOG
MARSHALL       CLOUDY    47  46  94 CALM      30.08F
ATHENS         CLOUDY    46  46 100 NW5       30.07R
PALESTINE      CLOUDY    47  47 100 W5        30.09R FOG
JACKSONVILLE   CLOUDY    56  52  84 CALM      30.07S
HENDERSON      CLOUDY    52  48  89 CALM      30.07F
CENTER         CLOUDY    50  48  92 MISG      30.08S
NACOGDOCHES    CLOUDY    52  50  93 S3        30.07F
LUFKIN         CLOUDY    53  50  89 CALM      30.06F
$$

SUPPLEMENTAL OBSERVATIONS (NWS FORT WORTH AREA)

CITY           SKY/WX    TMP DP  RH WIND       PRES   REMARKS
DENISON DAM      N/A     48  45  87 S5          N/A
CADDO GRASSLND   N/A     50  45  81 S6          N/A
PAT MAYSE LAKE   N/A     46  45  93 SE7         N/A
GREENVILLE       N/A     48  45  87 S8          N/A
CEDAR HILL       N/A     50  45  81 S7          N/A
LBJ GRASSLAND    N/A     52  45  76 SE8         N/A
POSSUM KINGDOM   N/A     63  41  45 W6          N/A
GRANBURY         N/A     55  46  71 SE9G17      N/A
MCGREGOR         N/A     54  48  82 SE2         N/A
TEMPLE           N/A     54  48  82 SW2         N/A
ATHENS           N/A     54  48  82 W2          N/A
$$

SUPPLEMENTAL OBSERVATIONS (NWS NORMAN AREA)

CITY           SKY/WX    TMP DP  RH WIND       PRES   REMARKS
GOODLETT         N/A     51  35  53 W2        30.00S
ODELL            N/A     49  39  67 N3        30.02S
CROWELL          N/A     52  37  56 NW2       30.02S
KNOX CITY        N/A     51  36  55 W3        30.04R
SEYMOUR          N/A     52  37  56 W5        30.02S
MILLERS CREEK    N/A     52  37  58 W8          N/A
$$

SUPPLEMENTAL OBSERVATIONS (NWS SAN ANGELO AREA)

CITY           SKY/WX    TMP DP  RH WIND       PRES   REMARKS
WEINERT          N/A     51  35  55 SW2       30.03S
HASKELL          N/A     50  35  56 W5        30.03S
THROCKMORTON     N/A     57  39  51 SW13      30.03R
STAMFORD         N/A     56  35  45 W7        30.03F
CLYDE            N/A     60  42  49 SW7       30.02F
HAMBY            N/A     61  39  44 SW8         N/A
IVIE RESERVOIR   N/A     63  45  51 N7          N/A
COLORADO BEND    N/A     64  46  52 SW7         N/A
$$

SUPPLEMENTAL OBSERVATIONS (NWS SHREVEPORT AREA)

CITY           SKY/WX    TMP DP  RH WIND       PRES   REMARKS
CLARKSVILLE      N/A     46  43  87 S7          N/A
TEXARKANA        N/A     48  46  93 S2          N/A
LINDEN           N/A     48  45  87 SE1         N/A
CADDO LAKE       N/A     50  46  87 CALM        N/A
GILMER           N/A     48  46  93 SW2         N/A
HENDERSON        N/A     55  50  82 S2          N/A
LUFKIN           N/A     54  48  82 MISG        N/A
N SABINE NF      N/A     52  48  87 MISG        N/A
S SABINE NF      N/A     52  50  93 NE2         N/A
$$

SUPPLEMENTAL OBSERVATIONS ARE A COLLECTION OF AUTOMATED INSTRUMENTS
THAT ARE MAINTAINED BY A VARIETY OF FEDERAL AND STATE AGENCIES.
CERTAIN ELEMENTS...SUCH AS HUMIDITY VALUES AND SUSTAINED WIND
SPEEDS...MAY BE APPROXIMATED.




USA.gov is the U.S. government's official web portal to all federal, state and local government web resources and services.